McCook, NE

6:25 AM CDT on August 26, 2016 (GMT -0500)
McCook Municipal

Weather History for KMCK - March, 2013

Change the Weather History Date:

Monday, March 18, 2013

  Actual Average Record
Temperature  
Mean Temperature 38 °F 40 °F  
Max Temperature 52 °F 55 °F 84 °F (2007)
Min Temperature 23 °F 25 °F -4 °F (1958)
Degree Days  
Heating Degree Days 28    
Moisture  
Dew Point 21 °F    
Average Humidity 58    
Maximum Humidity 100    
Minimum Humidity 22    
Precipitation  
Precipitation 0.00 in 0.04 in 0.91 in (2003)
Month to date precipitation 0.19 0.72  
Year to date precipitation 1.36 1.85  
Sea Level Pressure  
Sea Level Pressure 29.95 in    
Wind  
Wind Speed 12 mph (NW)    
Max Wind Speed 25 mph    
Max Gust Speed 36 mph    
Visibility 9 miles    
Events      
T = Trace of Precipitation, MM = Missing Value Source: NWS Daily Summary

Daily Weather History Graph

Daily Weather History Graph

Search for Another Location

Airport or City:

Trip Planner

Search our weather history database for the weather conditions in past years. The results will help you decide how hot, cold, wet, or windy it might be!

Date:

Astronomy

Mar. 18, 2013 Rise Set
Actual Time 7:48 AM CDT 7:52 PM CDT
Civil Twilight 7:21 AM CDT 8:19 PM CDT
Nautical Twilight 6:49 AM CDT 8:51 PM CDT
Astronomical Twilight 6:17 AM CDT 9:23 PM CDT
Moon 11:49 AM CDT (3/18) 1:54 AM CDT (3/18)
Length of Visible Light 12h 58m
Length of Day
12h 04m
Waxing Crescent, 41% of the Moon is Illuminated
Mar 18
Waxing Crescent
Mar 19
First Quarter
Mar 27
Full
Apr 2
Last Quarter
Apr 10
New

Hourly Weather History & Observations

Time (CDT) Temp. Windchill Dew Point Humidity Pressure Visibility Wind Dir Wind Speed Gust Speed Precip Events Conditions
12:53 AM 34.0 °F 26.0 °F 33.1 °F 96% 29.84 in 1.2 mi West 10.4 mph - N/A   Overcast
12:57 AM 33.8 °F 24.8 °F 33.8 °F 100% 29.79 in 4.0 mi WNW 12.7 mph - N/A   Overcast
1:06 AM 33.8 °F 24.3 °F 32.0 °F 93% 29.80 in 10.0 mi NW 13.8 mph - N/A   Overcast
1:53 AM 34.0 °F 25.0 °F 30.0 °F 85% 29.88 in 10.0 mi NNW 12.7 mph - N/A   Partly Cloudy
2:53 AM 33.1 °F 26.9 °F 28.9 °F 85% 29.91 in 10.0 mi WNW 6.9 mph - N/A   Partly Cloudy
3:53 AM 32.0 °F 24.2 °F 26.1 °F 79% 29.92 in 10.0 mi WNW 9.2 mph - N/A   Clear
4:53 AM 30.9 °F 23.5 °F 24.1 °F 76% 29.93 in 10.0 mi West 8.1 mph - N/A   Unknown
5:53 AM 27.0 °F 20.5 °F 21.9 °F 81% 29.94 in 10.0 mi WSW 5.8 mph - N/A   Clear
6:53 AM 24.1 °F 15.2 °F 21.0 °F 88% 29.95 in 10.0 mi WSW 8.1 mph - N/A   Clear
7:53 AM 23.0 °F 13.9 °F 19.9 °F 88% 29.97 in 10.0 mi SW 8.1 mph - N/A   Clear
8:53 AM 28.9 °F 20.4 °F 24.1 °F 82% 29.98 in 10.0 mi SW 9.2 mph - N/A   Clear
9:53 AM 34.0 °F 25.0 °F 26.1 °F 73% 29.98 in 10.0 mi WNW 12.7 mph - N/A   Clear
10:53 AM 39.9 °F 32.1 °F 28.9 °F 65% 29.99 in 10.0 mi WNW 13.8 mph - N/A   Clear
11:53 AM 44.1 °F 35.7 °F 23.0 °F 43% 29.99 in 10.0 mi NNW 20.7 mph 32.2 mph N/A   Clear
12:53 PM 46.9 °F - 19.9 °F 34% 30.00 in 10.0 mi NNW 25.3 mph 35.7 mph N/A   Clear
1:53 PM 48.9 °F - 18.0 °F 29% 29.99 in 10.0 mi NW 23.0 mph 31.1 mph N/A   Clear
2:53 PM 50.0 °F - 17.1 °F 27% 29.98 in 10.0 mi NW 16.1 mph 32.2 mph N/A   Partly Cloudy
3:53 PM 51.1 °F - 14.0 °F 23% 29.96 in 10.0 mi NNW 19.6 mph 27.6 mph N/A   Partly Cloudy
4:53 PM 50.0 °F - 12.9 °F 23% 29.95 in 10.0 mi NW 16.1 mph 25.3 mph N/A   Scattered Clouds
5:53 PM 50.0 °F - 12.0 °F 22% 29.94 in 10.0 mi NNW 17.3 mph - N/A   Clear
6:53 PM 48.0 °F - 10.9 °F 22% 29.96 in 10.0 mi NNW 12.7 mph - N/A   Clear
7:53 PM 42.1 °F 39.2 °F 15.1 °F 34% 29.98 in 10.0 mi NNE 4.6 mph - N/A   Mostly Cloudy
8:53 PM 41.0 °F 33.5 °F 16.0 °F 36% 30.00 in 10.0 mi East 13.8 mph - N/A   Overcast
9:53 PM 39.9 °F 33.4 °F 17.1 °F 40% 30.02 in 10.0 mi ENE 10.4 mph - N/A   Overcast
10:53 PM 37.9 °F 29.6 °F 14.0 °F 38% 30.04 in 10.0 mi East 13.8 mph - N/A   Overcast
11:53 PM 35.1 °F 27.4 °F 12.9 °F 40% 30.05 in 10.0 mi East 10.4 mph - N/A   Mostly Cloudy